Location: Unspecified
(0.0000°N, 0.0000°E)
Time: 17:36:31
(UTC+00:00)

Hubble Space Telescope - Pass Details

Date: 12 May 2021
Orbit: 535 x 539 km, 28.5° (Epoch: 14 May)

Event Time Altitude Azimuth Distance (km) Brightness Sun altitude
Rises 18:25:59 0° 265° (W) 2,673 5.8 -7.0°
Reaches altitude 10° 18:29:13 10° 239° (WSW) 1,784 4.0 -7.8°
Maximum altitude 18:31:21 14° 207° (SSW) 1,563 3.3 -8.3°
Drops below altitude 10° 18:33:29 10° 176° (S) 1,787 3.2 -8.8°
Enters shadow 18:35:49 - 155° (SSE) 2,388 3.7 -9.4°
